STARLINK-36147

Last updated on Fri Dec 19 2025 00:02:09 GMT+0000 (Coordinated Universal Time)

1 66987U 25288AE 25352.58336806 -.01541227 00000+0 -67339-2 0 9990 2 66987 43.0015 131.2642 0001330 275.3542 352.0651 15.86396882 2779
UTC large
Height (km)
Speed (km/s)
/
Latitude / Longitude
Inclination (degrees)
Orbital Period (minutes)
Azimuth
Elevation
Range (km)
Doppler Factor

Next 0 passes for location: London (51.5072 / 0.1276)

Sorry there are no passes over London.